This is the latest recevied weather packets stored in our database for station/object KW4UJ. If no packets are shown the sender has not sent any weather packets the latest 10 day(s).
| Time | Temp. | Humidity | Pressure | Rain* | Wind** | Luminosity | Snow |
|---|---|---|---|---|---|---|---|
| 1788212261 | 28.33° C | 76% | 1018.6 hPa | 0 mm | - | 95 W/m² | - |
| 1788211958 | 28.33° C | 76% | 1018.4 hPa | 0 mm | - | 106 W/m² | - |
| 1788211652 | 28.33° C | 76% | 1018.7 hPa | 0 mm | - | 121 W/m² | - |
| 1788211349 | 28.33° C | 77% | 1018.6 hPa | 0 mm | - | 129 W/m² | - |
| 1788211047 | 28.33° C | 77% | 1018.6 hPa | 0 mm | - | 107 W/m² | - |
| 1788210743 | 28.89° C | 77% | 1018.5 hPa | 0 mm | - | 88 W/m² | - |
| 1788210443 | 28.89° C | 77% | 1018.5 hPa | 0 mm | - | 94 W/m² | - |
| 1788210139 | 28.89° C | 77% | 1018.5 hPa | 0 mm | - | 114 W/m² | - |
| 1788209838 | 28.89° C | 76% | 1018.3 hPa | 0 mm | - | 127 W/m² | - |
| 1788209535 | 28.89° C | 76% | 1018.3 hPa | 0 mm | - | 131 W/m² | - |
| 1788209235 | 28.89° C | 75% | 1018.5 hPa | 0 mm | - | 146 W/m² | - |
| 1788208934 | 28.89° C | 74% | 1018.5 hPa | 0 mm | - | 129 W/m² | - |
| 1788208628 | 28.89° C | 75% | 1018.5 hPa | 0 mm | - | 96 W/m² | - |
| 1788208328 | 28.89° C | 72% | 1018.7 hPa | 0 mm | - | 74 W/m² | - |
| 1788208027 | 28.89° C | 72% | 1018.4 hPa | 0 mm | - | 85 W/m² | - |
| 1788207727 | 29.44° C | 73% | 1018.5 hPa | 0 mm | - | 102 W/m² | - |
| 1788207421 | 29.44° C | 71% | 1018.5 hPa | 0 mm | - | 95 W/m² | - |
| 1788207121 | 29.44° C | 70% | 1018.6 hPa | 0 mm | - | 126 W/m² | - |
| 1788206817 | 29.44° C | 71% | 1018.5 hPa | 0 mm | - | 153 W/m² | - |
| 1788206516 | 29.44° C | 70% | 1018.6 hPa | 0 mm | - | 166 W/m² | - |
| 1788206212 | 29.44° C | 69% | 1018.6 hPa | 0 mm | - | 199 W/m² | - |
| 1788205908 | 29.44° C | 70% | 1018.6 hPa | 0 mm | - | 279 W/m² | - |
| 1788205603 | 29.44° C | 71% | 1018.3 hPa | 0 mm | - | 263 W/m² | - |
| 1788205298 | 29.44° C | 70% | 1018.7 hPa | 0 mm | - | 172 W/m² | - |
| 1788204998 | 28.89° C | 70% | 1018.5 hPa | 0 mm | - | 112 W/m² | - |
* Rain latest hour (hover to see other rain measurements)
** Current wind speed in m/s (hover to see current wind gust speed)